Torna al catalogo

STARLINK-32313

AttivoComunicazioniVLEO
NORAD 61527·PAYLOAD·🇺🇸 United States

Lanciato Oct 15, 2024 da Cape Canaveral Space Force Station

Loading…

Prossimi Passaggi (prossime 24 ore)

TLE

AggiornatoSource: CelesTrak SupGP

Epoca: Sep 15, 2026, 02:37 UTC

1 61527C 24183U   26258.10951389 -.00057941  00000+0 -17131-2 0  2588
2 61527  53.1589 340.7109 0001144  86.4250 146.1288 15.34397784    15

Traccia STARLINK-32313 in tempo reale con AllMySat

Download on the App Store